RH
98 75 95 91 82 79 84 87 88 86 80 73 70 66 69 73 74 80 76 74 74 78 82 85 92 89 89
60 58 74 74 85 94 90 90 88 78 74 74 73 69 68 71 76 76 80 78 78 79 82 90 91 89 91
99 97 81 67 72 92 85 81 83 78 79 77 80 83 80 78 79 80 88 85 83 87 90 92 91 91 90
99 90 92 75 84 94 90 87 82 84 86 76 71 73 69 70 69 82 88 88 88 80 77 84 90 92 95
99 98 90 99 98 90 96 87 83 86 79 69 69 72 74 74 76 88 96 94 93 89 82 84 88 84 92
99 99 98 97 99 100 100 100 96 94 80 74 77 88 85 84 90 100 100 94 99 100 96 100 98 100 100
99 99 100 99 99 100 98 99 99 94 94 91 92 98 98 98 88 98 100 99 94 100 100 99 100 97 99
100 99 100 99 100 100 100 100 100 98 100 99 95 99 92 88 98 90 99 100 100 100 99 96 96 93 90
100 100 100 100 100 100 100 100 100 98 99 100 99 100 100 95 96 98 100 99 96 97 91 93 87 80 77
96 96 100 100 99 99 100 100 100 99 98 99 99 100 99 100 99 98 98 100 98 96 90 91 94 98 99
95 98 100 99 99 99 100 100 100 100 100 100 99 100 100 99 100 100 100 100 100 100 100 100 100 100 100
100 100 100 99 98 99 100 100 100 100 100 100 100 100 100 100 99 100 100 100 100 99 100 100 100 100 100
100 100 100 96 98 98 99 99 99 99 100 100 100 100 100 100 99 99 100 100 100 100 100 100 100 100 100
99 99 95 97 96 94 98 100 100 100 100 100 100 100 100 100 100 100 100 100 100 100 100 100 100 100 97
91 88 85 80 66 62 69 72 68 75 97 100 100 100 100 100 100 100 100 100 100 100 99 94 89 82 67
37 42 49 38 31 31 33 37 26 37 57 92 100 100 100 100 99 100 100 98 100 94 60 38 30 26 25
33 33 29 24 21 20 19 22 24 27 29 30 39 58 63 49 61 70 78 58 40 32 28 29 24 19 16
Wind_Speed
32 31 30 31 33 33 26 27 28 28 30 33 35 37 38 38 40 39 38 38 37 37 36 35 32 31 28
36 35 38 33 32 26 25 27 28 30 30 31 31 34 36 37 36 39 37 37 35 36 39 37 35 33 32
37 33 33 34 36 34 31 30 29 28 25 23 21 25 28 31 34 35 34 33 33 33 34 36 34 35 35
32 33 32 30 31 32 34 29 31 28 25 26 25 23 26 27 30 32 34 32 31 31 31 31 32 34 33
33 32 30 28 29 32 33 29 27 26 24 23 24 23 25 23 26 27 28 32 33 33 33 33 31 33 35
31 32 30 28 23 30 27 24 25 23 23 22 19 17 20 19 17 19 22 23 27 30 32 30 30 31 36
29 30 30 26 29 30 30 27 24 24 24 23 21 17 16 17 17 16 17 21 24 18 18 21 25 27 28
22 24 24 24 24 27 25 28 27 22 21 21 21 20 17 16 19 18 19 18 17 14 17 24 24 25 25
19 21 21 24 25 25 25 24 23 23 23 22 25 24 17 15 15 14 14 16 17 20 18 16 19 25 31
15 13 13 17 22 24 26 29 27 27 29 25 25 25 14 14 14 14 12 13 13 15 12 11 11 7 7
14 10 8 9 11 13 17 22 27 28 22 19 21 24 20 10 14 13 11 8 7 6 8 9 8 7 8
12 10 10 9 10 8 6 5 11 18 20 23 22 21 22 18 13 14 12 11 10 11 11 11 10 9 8
15 14 13 13 12 9 6 4 3 2 9 14 16 13 15 14 15 17 17 14 13 12 11 11 10 8 6
20 19 19 19 16 12 8 6 2 0 2 5 8 8 12 10 10 17 16 10 13 11 10 9 8 8 7
20 19 19 17 14 13 12 11 9 6 4 5 7 9 9 9 13 15 14 12 9 10 9 9 10 11 10
16 16 14 12 11 10 9 9 7 8 7 8 10 10 12 10 11 11 11 10 10 8 7 7 7 7 7
13 13 12 10 9 8 7 6 7 8 8 8 10 10 10 10 9 10 9 7 6 6 6 6 7 6 7
Wind_Direction
276 293 291 291 288 290 277 272 271 270 270 271 269 270 270 265 256 253 253 254 252 253 252 252 253 251 251
286 283 276 280 289 295 280 278 275 276 275 276 275 271 270 268 264 255 256 255 251 249 247 248 248 251 248
293 292 285 277 274 278 276 277 278 280 276 274 276 273 264 265 265 257 253 256 250 248 246 246 245 247 247
295 298 297 287 270 271 274 276 276 278 275 276 276 274 277 276 269 261 251 250 248 247 249 244 246 247 245
287 291 289 288 266 268 272 277 278 275 276 282 278 277 277 275 276 261 257 252 252 253 254 247 241 249 246
284 282 279 272 279 275 263 269 274 272 275 278 283 284 276 274 272 260 260 267 260 251 246 239 243 244 246
274 273 278 270 268 278 278 270 264 265 273 278 286 279 277 274 276 270 259 267 255 251 240 244 247 250 253
280 274 270 273 269 269 267 267 266 259 257 273 274 270 268 278 277 269 266 249 252 257 263 256 259 259 257
291 284 278 271 267 264 258 253 246 258 258 268 259 264 260 264 268 271 254 260 263 261 269 258 268 268 253
285 291 295 283 274 267 261 257 254 263 267 261 257 252 237 244 240 248 257 264 271 276 267 276 279 282 261
274 284 302 315 310 287 271 257 250 252 247 249 240 235 225 210 216 224 222 229 235 218 200 185 166 177 180
259 272 284 298 310 336 344 297 258 245 239 238 234 230 224 211 195 203 202 192 185 183 179 171 170 166 161
256 261 271 284 289 291 304 341 355 226 226 222 225 235 223 225 205 186 182 179 180 183 185 185 186 180 186
254 260 264 271 270 260 252 255 259 265 165 190 204 206 202 197 199 186 186 181 189 194 201 205 211 220 227
254 257 258 257 250 243 237 237 233 226 196 162 166 176 179 174 171 178 185 191 191 207 221 235 248 254 256
248 244 240 235 232 227 222 231 222 195 181 170 159 163 158 148 165 183 196 212 227 233 240 241 241 237 237
231 224 223 225 225 216 205 205 200 193 181 182 183 182 188 179 193 202 197 209 218 215 216 225 243 250 251